Huntington, WV

12:40 PM EDT on April 26, 2018 (GMT -0400)
Tri-State / Ferguson

Weather History for KHTS - March, 2014

Change the Weather History Date:

Tuesday, March 18, 2014

  Actual Average Record
Temperature  
Mean Temperature 47 °F 47 °F  
Max Temperature 60 °F 57 °F 85 °F (1908)
Min Temperature 33 °F 36 °F 13 °F (1941)
Degree Days  
Heating Degree Days 18 19  
Month to date heating degree days 462 386  
Since 1 July heating degree days 4223 3887  
Cooling Degree Days 0 0  
Month to date cooling degree days 0 0  
Year to date cooling degree days 0 0  
Moisture  
Dew Point 35 °F    
Average Humidity 68    
Maximum Humidity 89    
Minimum Humidity 47    
Precipitation  
Precipitation 0.00 in 0.13 in 1.37 in (1898)
Month to date precipitation 1.73 2.26  
Year to date precipitation 9.09 8.30  
Snow  
Snow 0.00 in 0.10 in 6.00 in (1936)
Month to date snowfall 7.5 2.5  
Since 1 September snowfall 35.7 21.4  
Snow Depth 0.00 in    
Sea Level Pressure  
Sea Level Pressure 29.94 in    
Wind  
Wind Speed 6 mph (ESE)    
Max Wind Speed 13 mph    
Max Gust Speed 19 mph    
Visibility 10 miles    
Events      
T = Trace of Precipitation, MM = Missing Value Source: NWS Daily Summary

Daily Weather History Graph

Daily Weather History Graph

Search for Another Location

Airport or City:

Astronomy

Mar. 18, 2014 Rise Set
Actual Time 7:36 AM EDT 7:40 PM EDT
Civil Twilight 7:10 AM EDT 8:06 PM EDT
Nautical Twilight 6:39 AM EDT 8:37 PM EDT
Astronomical Twilight 6:08 AM EDT 9:08 PM EDT
Moon 9:54 PM EDT (3/18) 8:27 AM EDT (3/18)
Length of Visible Light 12h 56m
Length of Day
12h 03m
Waning Gibbous, 96% of the Moon is Illuminated
Mar 18
Waning Gibbous
Mar 23
Last Quarter
Mar 30
New
Apr 7
First Quarter
Apr 15
Full

Hourly Weather History & Observations

Time (EDT) Temp. Windchill Dew Point Humidity Pressure Visibility Wind Dir Wind Speed Gust Speed Precip Events Conditions
12:51 AM 36.0 °F - 30.9 °F 82% 29.91 in 10.0 mi Calm Calm - N/A   Overcast
1:51 AM 35.1 °F 30.1 °F 30.0 °F 82% 29.92 in 10.0 mi ESE 5.8 mph - N/A   Overcast
2:51 AM 35.1 °F 31.0 °F 30.0 °F 82% 29.92 in 10.0 mi East 4.6 mph - N/A   Overcast
3:18 AM 34.0 °F 28.8 °F 30.0 °F 85% 29.90 in 10.0 mi East 5.8 mph - N/A   Overcast
3:51 AM 34.0 °F 29.8 °F 28.9 °F 82% 29.91 in 10.0 mi East 4.6 mph - N/A   Overcast
4:51 AM 34.0 °F 31.0 °F 28.9 °F 82% 29.90 in 10.0 mi ENE 3.5 mph - N/A   Overcast
5:51 AM 34.0 °F 29.8 °F 30.0 °F 85% 29.92 in 10.0 mi NE 4.6 mph - N/A   Overcast
6:51 AM 35.1 °F 30.1 °F 30.0 °F 82% 29.92 in 10.0 mi East 5.8 mph - N/A   Overcast
7:51 AM 35.1 °F 31.0 °F 28.9 °F 78% 29.94 in 10.0 mi ENE 4.6 mph - N/A   Overcast
8:51 AM 36.0 °F 32.1 °F 30.0 °F 79% 29.96 in 10.0 mi East 4.6 mph - N/A   Overcast
9:51 AM 39.0 °F 34.8 °F 30.9 °F 73% 29.97 in 10.0 mi East 5.8 mph - N/A   Scattered Clouds
10:51 AM 43.0 °F 41.3 °F 33.1 °F 68% 29.98 in 10.0 mi Variable 3.5 mph - N/A   Clear
11:51 AM 45.0 °F 43.5 °F 35.1 °F 68% 30.00 in 10.0 mi Variable 3.5 mph - N/A   Scattered Clouds
12:51 PM 50.0 °F - 37.0 °F 61% 30.00 in 10.0 mi ESE 5.8 mph - N/A   Mostly Cloudy
1:51 PM 53.1 °F - 37.9 °F 57% 30.00 in 10.0 mi North - - N/A   Clear
2:51 PM 55.0 °F - 39.0 °F 55% 29.98 in 10.0 mi SSW 11.5 mph - N/A   Mostly Cloudy
3:51 PM 55.9 °F - 39.0 °F 53% 29.97 in 10.0 mi SSW 8.1 mph - N/A   Scattered Clouds
4:51 PM 59.0 °F - 39.9 °F 49% 29.94 in 10.0 mi South 9.2 mph - N/A   Mostly Cloudy
5:51 PM 59.0 °F - 39.9 °F 49% 29.93 in 10.0 mi ESE 6.9 mph - N/A   Scattered Clouds
6:51 PM 57.9 °F - 39.9 °F 51% 29.91 in 10.0 mi SSE 8.1 mph - N/A   Clear
7:51 PM 55.0 °F - 39.9 °F 57% 29.90 in 10.0 mi East 4.6 mph - N/A   Clear
8:51 PM 53.1 °F - 39.9 °F 61% 29.90 in 10.0 mi ESE 5.8 mph - N/A   Clear
9:51 PM 51.1 °F - 39.0 °F 63% 29.90 in 10.0 mi ESE 8.1 mph - N/A   Clear
10:51 PM 48.9 °F - 37.9 °F 66% 29.91 in 10.0 mi East 6.9 mph - N/A   Clear
11:51 PM 46.9 °F - 37.9 °F 71% 29.91 in 10.0 mi ESE 6.9 mph - N/A   Clear